WetterOnline ( https://www.wetteronline.de )

Wetter aktuell Sabaudia

Aktuelles Wetter: Ponza (185m)

6-stündlich | Neueste Meldungen
Ortszeit Temperatur Wetter
Di, 18.02. 19:00 12.6° C bewölkt
Di, 18.02. 13:00 14.4° C wolkig
Di, 18.02. 7:00 11.0° C leicht bewölkt
Di, 18.02. 1:00 11.4° C leicht bewölkt
Mo, 17.02. 19:00 11.8° C leicht bewölkt
Mo, 17.02. 13:00 14.8° C leicht bewölkt
Mo, 17.02. 7:00 11.2° C leicht bewölkt
Mo, 17.02. 1:00 11.8° C wolkenlos
Ortszeit Temperatur Wetter
Mi, 19.02. 0:00 11.0° C leicht bewölkt
Di, 18.02. 23:00 11.0° C leicht bewölkt
Di, 18.02. 22:00 11.0° C wolkig
Di, 18.02. 21:00 11.2° C leicht bewölkt
Di, 18.02. 20:00 12.0° C wolkig
Di, 18.02. 19:00 12.6° C bewölkt
Ortszeit Relative Feuchte Sichtweite
Di, 18.02. 19:00 90% 10 km
Di, 18.02. 13:00 86% 10 km
Di, 18.02. 7:00 96% 10 km
Di, 18.02. 1:00 96% <50 m
Mo, 17.02. 19:00 96% 15 km
Mo, 17.02. 13:00 87% 20 km
Mo, 17.02. 7:00 99% 20 km
Mo, 17.02. 1:00 98% 20 km
Ortszeit Relative Feuchte Sichtweite
Mi, 19.02. 0:00 90% 10 km
Di, 18.02. 23:00 90% 10 km
Di, 18.02. 22:00 90% 10 km
Di, 18.02. 21:00 92% 10 km
Di, 18.02. 20:00 90% 10 km
Di, 18.02. 19:00 90% 10 km
Ortszeit Niederschlagsmenge Niederschlagsart
Di, 18.02. 19:00 0.0 l/m2 in 12 Std. -
Di, 18.02. 13:00 0.0 l/m2 in 6 Std. -
Di, 18.02. 7:00 0.0 l/m2 in 12 Std. -
Di, 18.02. 1:00 0.0 l/m2 in 6 Std. -
Mo, 17.02. 19:00 0.0 l/m2 in 12 Std. -
Mo, 17.02. 13:00 0.0 l/m2 in 6 Std. -
Mo, 17.02. 7:00 0.0 l/m2 in 12 Std. -
Mo, 17.02. 1:00 0.0 l/m2 in 6 Std. -
Ortszeit Niederschlagsmenge Niederschlagsart
Mi, 19.02. 0:00 keine Meldung -
Di, 18.02. 23:00 keine Meldung -
Di, 18.02. 22:00 keine Meldung -
Di, 18.02. 21:00 keine Meldung -
Di, 18.02. 20:00 keine Meldung -
Di, 18.02. 19:00 keine Meldung -
Ortszeit Stärke Spitze Richtung
km/h Bft. km/h Grad Sektor
Di, 18.02. 19:00 4 1 25 - -
Di, 18.02. 13:00 4 1 - - -
Di, 18.02. 7:00 7 2 - 270° W
Di, 18.02. 1:00 9 2 - 270° W
Mo, 17.02. 19:00 11 2 - 270° W
Mo, 17.02. 13:00 13 3 - 250° W
Mo, 17.02. 7:00 4 1 - 260° W
Mo, 17.02. 1:00 6 1 - 330° NW
Ortszeit Stärke Spitze Richtung
km/h Bft. km/h Grad Sektor
Mi, 19.02. 0:00 13 3 - uml. uml.
Di, 18.02. 23:00 13 3 - 280° W
Di, 18.02. 22:00 15 3 - 280° W
Di, 18.02. 21:00 11 2 - 280° W
Di, 18.02. 20:00 11 2 - 280° W
Di, 18.02. 19:00 4 1 25 - -
Ortszeit Untergrenze Bedeckung Gattung
total tief tief mittel hoch
Di, 18.02. 19:00 270 m 8/8 4/8 Cu Ac -
Di, 18.02. 13:00 510 m 7/8 3/8 Cu Ac -
Di, 18.02. 7:00 540 m 4/8 4/8 Cu - -
Di, 18.02. 1:00 - 4/8 0/8 - - Ci
Mo, 17.02. 19:00 4800 m 4/8 4/8 - - Ci
Mo, 17.02. 13:00 300 m 5/8 2/8 Cu - Ci
Mo, 17.02. 7:00 300 m 2/8 2/8 Cu - -
Mo, 17.02. 1:00 - 0/8 0/8 - - -
Ortszeit Bedeckungsgrad in Achtel und Wolkenuntergrenze
Mi, 19.02. 0:00 5(450m)
Di, 18.02. 23:00 4(450m)
Di, 18.02. 22:00 5(600m)
Di, 18.02. 21:00 5(450m)
Di, 18.02. 20:00 6(450m)
Di, 18.02. 19:00 4(270m) 5(1800m)
Ortszeit Luftdruck NN (hPa) Tendenz (hPa in 3 Std.)
Di, 18.02. 19:00 1022 - 0,2
Di, 18.02. 13:00 1024 - 0,5
Di, 18.02. 7:00 1025 - 0,9
Di, 18.02. 1:00 1027 - 0,2
Mo, 17.02. 19:00 1026 - 0,1
Mo, 17.02. 13:00 1028 - 1,5
Mo, 17.02. 7:00 1030 0,0
Mo, 17.02. 1:00 1031 0,0
Ortszeit Luftdruck NN (hPa) Tendenz (hPa in 3 Std.)
Mi, 19.02. 0:00 1023 + 0,3
Di, 18.02. 23:00 1023 + 0,7
Di, 18.02. 22:00 1023 + 0,3
Di, 18.02. 21:00 1023 + 0,3
Di, 18.02. 20:00 1023 + 0,2
Di, 18.02. 19:00 1022 - 0,2
Ortszeit Schneehöhe (cm)
Di, 18.02. 19:00 -
Di, 18.02. 13:00 -
Di, 18.02. 7:00 0
Di, 18.02. 1:00 -
Mo, 17.02. 19:00 -
Mo, 17.02. 13:00 -
Mo, 17.02. 7:00 0
Mo, 17.02. 1:00 -
Ortszeit Schneehöhe (cm)
Mi, 19.02. 0:00 -
Di, 18.02. 23:00 -
Di, 18.02. 22:00 -
Di, 18.02. 21:00 -
Di, 18.02. 20:00 -
Di, 18.02. 19:00 -
Link zu dieser Seite / Seite empfehlen

Das Wetter in ...